User: anonymous   Login
Location: Unspecified
(0.0000°N, 0.0000°E)
Time: 03:35:25
(UTC+00:00)
Language:

SES 6 - Orbit

View from above orbital plane
View from above orbital plane
View from above satellite
View from above satellite

Ground track
Ground track

The orbit data is extracted from the following two-line orbital elements,

1 39172U 13026A   16126.43812609 -.00000276  00000-0  00000+0 0  9998
2 39172   0.0466  70.8901 0001441 344.8740 285.1860  1.00270166 10683
Epoch (UTC): 05 May 2016 10:30:54
Eccentricity: 0.0001441
inclination: 0.0466°
perigee height: 35780 km
apogee height: 35793 km
right ascension of ascending node: 70.8901°
argument of perigee: 344.8740°
revolutions per day: 1.00270166
mean anomaly at epoch: 285.1860°
orbit number at epoch: 1068

The dashed part of the orbit path shows where the satellite is in the earth's shadow,  

DLR